Home > Weather > Adak > Past weeks

Flag for USA Past Weather in Adak, Alaska, USA — Yesterday and Last 2 Weeks

Now
55 °F

Mostly cloudy.


Feels Like: 52 °F
Forecast: 48 / 52 °F
Wind: 15 mph from West

Location: Adak

Current Time: Jul 23, 2016 at 12:23:23 PM

Latest Report: Jul 23, 2016 at 11:56 AM


Visibility: 10 mi

Pressure: 30.35 "Hg

Humidity: 67%

Dew Point: 45 °F

Location of AdakLocation

Past Weather in Adak — Graph

°F

Adak Temperature Yesterday

Maximum temperature yesterday: 61 °F (at 5:16 PM)
Minimum temperature yesterday: 45 °F (at 4:36 AM)
Average temperature yesterday: 50 °F

High & Low Weather Summary for the Past Weeks

 TemperatureHumidityPressure
High61 °F (Jul 19, 12:36 PM)82% (Jul 8, 11:36 AM)30.45 "Hg (Jul 8, 11:36 AM)
Low43 °F (Jul 9, 4:56 AM)55% (Jul 9, 3:56 PM)29.89 "Hg (Jul 8, 11:16 AM)
Average51 °F73%30.24 "Hg
* Reported Jul 8 11:16 AM — Jul 23 11:16 AM, Adak, Weather by CustomWeather, © 2016

Note: Actual official high and low records may vary slightly from our data, if they occured in-between our weather recording intervals... More about our weather records

Advertising

Adak Weather History for the Previous 24 Hours

Scroll right to see more
 ConditionsComfort  
Time TempWeatherWind HumidityBarometerVisibility
11:16 AM
Sat, Jul 23
55 °FOvercast.12 mph67%30.37 "Hg10 mi
10:56 AM54 °FMostly cloudy.9 mph67%30.36 "Hg10 mi
10:36 AM54 °FMore clouds than sun.10 mph72%30.36 "Hg10 mi
10:16 AM54 °FOvercast.8 mph67%30.37 "Hg10 mi
9:56 AM52 °FOvercast.8 mph72%30.37 "Hg10 mi
9:36 AM52 °FOvercast.8 mph72%30.37 "Hg10 mi
9:16 AM52 °FMore clouds than sun.8 mph72%30.38 "Hg10 mi
8:56 AM50 °FMostly cloudy.7 mph76%30.39 "Hg10 mi
8:36 AM48 °FLow clouds.9 mph82%30.39 "Hg7 mi
8:16 AM48 °FLow clouds.9 mph82%30.39 "Hg7 mi
7:56 AM48 °FLow clouds.10 mph76%30.40 "Hg7 mi
7:36 AM48 °FLow clouds.13 mph76%30.39 "Hg6 mi
7:16 AM48 °FLow clouds.12 mph76%30.39 "Hg3 mi
6:56 AM48 °FMostly cloudy.10 mph76%30.39 "Hg3 mi
6:36 AM48 °FLow clouds.7 mph76%30.39 "Hg10 mi
6:16 AM48 °FLow clouds.6 mph76%30.39 "Hg10 mi
5:56 AM48 °FMostly cloudy.6 mph76%30.39 "Hg10 mi
5:36 AM48 °FLow clouds.9 mph76%30.40 "Hg8 mi
5:16 AM48 °FLow clouds.7 mph76%30.41 "Hg5 mi
4:56 AM48 °FLow clouds.7 mph76%30.41 "Hg5 mi
4:36 AM48 °FLow clouds.6 mph76%30.41 "Hg8 mi
4:16 AM48 °FLow clouds.No wind82%30.41 "Hg1 mi
3:56 AM48 °FLow clouds.No wind82%30.41 "Hg1 mi
3:36 AM48 °FLow clouds.No wind82%30.41 "Hg2 mi
3:16 AM48 °FLow clouds.No wind76%30.41 "Hg3 mi
2:56 AM48 °FLow clouds.No wind76%30.42 "Hg10 mi
2:36 AM48 °FLow clouds.7 mph76%30.43 "Hg6 mi
2:16 AM48 °FLow clouds.7 mph76%30.43 "Hg7 mi
1:56 AM48 °FLow clouds.5 mph76%30.43 "Hg8 mi
1:36 AM48 °FLow clouds.5 mph76%30.43 "Hg9 mi
1:16 AM48 °FLow clouds.No wind76%30.43 "Hg10 mi
12:56 AM48 °FLow clouds.5 mph76%30.43 "Hg10 mi
12:36 AM50 °FLow clouds.3 mph76%30.43 "Hg10 mi
12:16 AM50 °FLow clouds.6 mph76%30.43 "Hg10 mi
11:56 PM
Fri, Jul 22
50 °FLow clouds.No wind76%30.43 "Hg10 mi
11:36 PM50 °FLow clouds.5 mph76%30.43 "Hg10 mi
11:16 PM50 °FLow clouds.3 mph76%30.43 "Hg10 mi
10:56 PM50 °FLow clouds.5 mph76%30.42 "Hg10 mi
10:36 PM50 °FLow clouds.7 mph76%30.42 "Hg10 mi
10:16 PM50 °FLow clouds.8 mph76%30.41 "Hg10 mi
9:56 PM50 °FLow clouds.9 mph76%30.41 "Hg10 mi
9:36 PM52 °FLow clouds.9 mph72%30.40 "Hg10 mi
9:16 PM52 °FLow clouds.6 mph72%30.41 "Hg10 mi
8:56 PM52 °FLow clouds.7 mph72%30.40 "Hg10 mi
8:36 PM52 °FLow clouds.9 mph72%30.40 "Hg10 mi
8:16 PM52 °FOvercast.12 mph72%30.40 "Hg10 mi
7:56 PM54 °FOvercast.12 mph67%30.39 "Hg10 mi
7:36 PM54 °FOvercast.14 mph67%30.39 "Hg10 mi
7:16 PM54 °FOvercast.12 mph67%30.39 "Hg10 mi
6:56 PM55 °FOvercast.9 mph67%30.39 "Hg10 mi
6:36 PM57 °FOvercast.9 mph63%30.39 "Hg10 mi
6:16 PM57 °FOvercast.6 mph63%30.38 "Hg10 mi
5:56 PM57 °FOvercast.6 mph63%30.38 "Hg10 mi
5:36 PM61 °FPartly sunny.7 mph59%30.38 "Hg10 mi
5:16 PM61 °FOvercast.10 mph59%30.38 "Hg10 mi
4:56 PM59 °FPartly sunny.3 mph59%30.38 "Hg10 mi
4:36 PM59 °FPartly sunny.9 mph59%30.38 "Hg10 mi
4:16 PM59 °FOvercast.12 mph59%30.37 "Hg10 mi
3:56 PM57 °FPartly sunny.7 mph63%30.37 "Hg10 mi
3:36 PM57 °FPartly sunny.9 mph63%30.37 "Hg10 mi
3:16 PM57 °FOvercast.10 mph63%30.37 "Hg10 mi
2:56 PM55 °FOvercast.9 mph63%30.37 "Hg10 mi
2:36 PM54 °FOvercast.8 mph72%30.37 "Hg10 mi
2:16 PM54 °FOvercast.6 mph67%30.37 "Hg10 mi
1:56 PM54 °FOvercast.7 mph67%30.37 "Hg10 mi
1:36 PM52 °FOvercast.8 mph67%30.37 "Hg10 mi
12:56 PM52 °FOvercast.8 mph72%30.36 "Hg10 mi
12:36 PM52 °FOvercast.8 mph72%30.35 "Hg10 mi
12:16 PM50 °FOvercast.9 mph71%30.35 "Hg10 mi
Weather by CustomWeather, © 2016

See weather overviewHow to use our weather pages